Overview Statistics Trail Chart Weather Telemetry Raw packets
 

This is the latest recevied weather packets stored in our database for station/object SV9TNF-57. If no packets are shown the sender has not sent any weather packets the latest 10 day(s).

<< 58 59 60 61 62 63 64 >>
Time Temp. Humidity Pressure Rain* Wind** Luminosity Snow
1788263595 32.78° C 36% 994.9 hPa 0 mm 0.89 m/s, 7° - -
1788263295 32.78° C 36% 995.2 hPa 0 mm 2.24 m/s, 230° - -
1788262995 32.78° C 36% 994.9 hPa 0 mm 0.89 m/s, 293° - -
1788262695 31.67° C 38% 994.9 hPa 0 mm 0 m/s - -
1788262395 32.78° C 40% 995.2 hPa 0 mm 1.34 m/s, 306° - -
1788262094 32.22° C 42% 995.1 hPa 0 mm 8.49 m/s, 64° - -
1788261795 32.78° C 41% 995.2 hPa 0 mm 2.68 m/s, 59° - -
1788261494 32.78° C 40% 995.2 hPa 0 mm 0 m/s - -
1788261194 32.22° C 35% 995.1 hPa 0 mm 3.58 m/s, 245° - -
1788260894 32.78° C 37% 995.3 hPa 0 mm 0 m/s - -
1788260594 32.22° C 38% 995.1 hPa 0 mm 2.68 m/s, 151° - -
1788260294 31.67° C 39% 995.1 hPa 0 mm 1.79 m/s, 160° - -
1788259994 32.22° C 38% 995 hPa 0 mm 4.92 m/s, 329° - -
1788259694 31.67° C 38% 995.1 hPa 0 mm 3.13 m/s, 278° - -
1788259394 32.22° C 36% 995.1 hPa 0 mm 9.83 m/s, 332° - -
1788259094 32.78° C 34% 995.1 hPa 0 mm 2.68 m/s, 114° - -
1788258793 32.22° C 36% 995.2 hPa 0 mm 0.45 m/s, 62° - -
1788258494 32.78° C 35% 995.2 hPa 0 mm 6.71 m/s, 274° - -
1788258194 32.22° C 33% 995 hPa 0 mm 8.49 m/s, 33° - -
1788257893 31.67° C 35% 994.8 hPa 0 mm 0.89 m/s, 271° - -
1788257593 31.67° C 35% 994.9 hPa 0 mm 8.05 m/s, 11° - -
1788257293 31.67° C 35% 994.9 hPa 0 mm 7.6 m/s, 337° - -
1788256994 31.67° C 34% 994.8 hPa 0 mm 8.94 m/s, 329° - -
1788256693 31.67° C 34% 994.9 hPa 0 mm 0 m/s - -
1788256393 31.67° C 35% 994.9 hPa 0 mm 4.92 m/s, 2° - -

* Rain latest hour (hover to see other rain measurements)
** Current wind speed in m/s (hover to see current wind gust speed)